Climatologie pour Saint-Brevin les Pins
Jour • Résumé pour février 14, 2017 Système :  Métrique    Anglais   Mixte
« - 1 jour
+ 1 jour »
Jour Semaine Mois Année Personnalisé
  Maximum : Minimum : Moyenne :
Température sous abri : -17.8 °C -13.1 °C -11.7 °C
Point de rosée : -17.8 °C -13.6 °C -12.4 °C
Humidité : Humidity % 79 % 92 %
Vitesse du vent : 0 km/h 0 km/h 6.3 km/h
Rafale : 0 km/h - -
Direction :- - SSE
Pression : 0 hPa 34279.9 hPa -
Précipitations : 38.1 mm    
Historical Graphs
 
 
Tableau de données pour février 14, 2017
Heure Tempé Pt rosée Pression Vent Vitesse Rafale Humidité Taux pluie (/hr) Soleil
-17.8 °C -17.8 °C 0 hPa Calm     Humidity % 0 mm SolarRadiationWatts/m^2 W/m2 Conditions
00:00 -11.9 °C -12.2 °C 34279.9 hPa SE 7.7 km/h 23.3 km/h 96 % 12.7 mm 0 W/m2
00:10 -11.9 °C -12.2 °C 34279.9 hPa ESE 20.8 km/h 23.3 km/h 96 % 12.7 mm 0 W/m2
00:15 -11.9 °C -12.2 °C 34279.9 hPa SSE 12.9 km/h 23.3 km/h 96 % 7.62 mm 0 W/m2
00:20 -11.9 °C -12.2 °C 34293.4 hPa ESE 10.3 km/h 23.3 km/h 96 % 7.62 mm 0 W/m2
00:25 -11.9 °C -12.2 °C 34293.4 hPa SSE 12.9 km/h 25.9 km/h 96 % 7.62 mm 0 W/m2
00:30 -11.9 °C -12.2 °C 34293.4 hPa SE 7.7 km/h 25.9 km/h 96 % 7.62 mm 0 W/m2
00:35 -11.9 °C -12.2 °C 34293.4 hPa SSE 12.9 km/h 20.8 km/h 96 % 7.62 mm 0 W/m2
00:40 -11.9 °C -12.2 °C 34293.4 hPa SE 5.1 km/h 18.2 km/h 96 % 7.62 mm 0 W/m2
00:45 -11.9 °C -12.2 °C 34293.4 hPa ENE 12.9 km/h 20.8 km/h 96 % 7.62 mm 0 W/m2
00:50 -11.9 °C -12.2 °C 34293.4 hPa SE 7.7 km/h 20.8 km/h 96 % 7.62 mm 0 W/m2
01:00 -11.9 °C -12.2 °C 34303.6 hPa Calm   23.3 km/h 96 % 0 mm 0 W/m2
01:10 -11.9 °C -12.3 °C 34293.4 hPa SE 5.1 km/h 12.9 km/h 96 % 0 mm 0 W/m2
01:20 -11.9 °C -12.3 °C 34303.6 hPa SE 7.7 km/h 18.2 km/h 96 % 0 mm 0 W/m2
01:25 -11.9 °C -12.3 °C 34303.6 hPa SE 2.6 km/h 18.2 km/h 96 % 0 mm 0 W/m2
01:35 -12 °C -12.3 °C 34303.6 hPa SE 2.6 km/h 15.6 km/h 96 % 0 mm 0 W/m2
01:40 -12 °C -12.3 °C 34303.6 hPa ESE 5.1 km/h 15.6 km/h 96 % 0 mm 0 W/m2
01:45 -12 °C -12.3 °C 34303.6 hPa ESE 5.1 km/h 15.6 km/h 96 % 0 mm 0 W/m2
01:55 -12 °C -12.3 °C 34303.6 hPa ESE 5.1 km/h 20.8 km/h 96 % 7.62 mm 0 W/m2
02:00 -12.1 °C -12.4 °C 34303.6 hPa SE 10.3 km/h 20.8 km/h 96 % 7.62 mm 0 W/m2
02:05 -12.1 °C -12.4 °C 34303.6 hPa East 5.1 km/h 18.2 km/h 96 % 7.62 mm 0 W/m2
02:20 -12.1 °C -12.4 °C 34303.6 hPa SE 7.7 km/h 18.2 km/h 96 % 12.7 mm 0 W/m2
02:35 -12.1 °C -12.4 °C 34313.7 hPa SE 7.7 km/h 18.2 km/h 96 % 12.7 mm 0 W/m2
02:40 -12.1 °C -12.4 °C 34303.6 hPa ESE 5.1 km/h 18.2 km/h 96 % 12.7 mm 0 W/m2
02:45 -12.1 °C -12.4 °C 34313.7 hPa ESE 7.7 km/h 15.6 km/h 96 % 12.7 mm 0 W/m2
02:50 -12.1 °C -12.4 °C 34313.7 hPa ESE 7.7 km/h 18.2 km/h 96 % 12.7 mm 0 W/m2
02:55 -12.1 °C -12.4 °C 34313.7 hPa SE 7.7 km/h 18.2 km/h 96 % 7.62 mm 0 W/m2
03:00 -12.1 °C -12.4 °C 34313.7 hPa ESE 10.3 km/h 20.8 km/h 96 % 7.62 mm 0 W/m2
03:10 -12.1 °C -12.4 °C 34313.7 hPa ESE 5.1 km/h 20.8 km/h 96 % 7.62 mm 0 W/m2
03:15 -12.1 °C -12.4 °C 34327.3 hPa ESE 2.6 km/h 12.9 km/h 96 % 7.62 mm 0 W/m2
03:25 -12.1 °C -12.4 °C 34327.3 hPa SSE 2.6 km/h 20.8 km/h 96 % 0 mm 0 W/m2
03:30 -12.1 °C -12.4 °C 34327.3 hPa SE 5.1 km/h 20.8 km/h 96 % 7.62 mm 0 W/m2
03:40 -12.1 °C -12.3 °C 34327.3 hPa SE 7.7 km/h 12.9 km/h 97 % 7.62 mm 0 W/m2
03:45 -12.1 °C -12.4 °C 34327.3 hPa SE 10.3 km/h 15.6 km/h 96 % 12.7 mm 0 W/m2
03:50 -12.1 °C -12.4 °C 34327.3 hPa Calm   15.6 km/h 96 % 12.7 mm 0 W/m2
03:55 -12.1 °C -12.4 °C 34327.3 hPa Calm   12.9 km/h 96 % 12.7 mm 0 W/m2
04:00 -12.1 °C -12.4 °C 34327.3 hPa SSE 12.9 km/h 18.2 km/h 96 % 12.7 mm 0 W/m2
04:10 -12.1 °C -12.4 °C 34327.3 hPa SE 5.1 km/h 20.8 km/h 96 % 12.7 mm 0 W/m2
04:20 -12.1 °C -12.3 °C 34327.3 hPa SSE 7.7 km/h 23.3 km/h 97 % 12.7 mm 0 W/m2
04:25 -12.1 °C -12.3 °C 34327.3 hPa SSE 2.6 km/h 23.3 km/h 97 % 12.7 mm 0 W/m2
04:35 -12.1 °C -12.4 °C 34337.4 hPa South 7.7 km/h 12.9 km/h 96 % 7.62 mm 0 W/m2
04:40 -12.1 °C -12.3 °C 34337.4 hPa SSE 10.3 km/h 12.9 km/h 97 % 12.7 mm 0 W/m2
04:50 -12.1 °C -12.3 °C 34337.4 hPa South 2.6 km/h 15.6 km/h 97 % 12.7 mm 0 W/m2
04:55 -12.1 °C -12.3 °C 34337.4 hPa South 7.7 km/h 12.9 km/h 97 % 12.7 mm 0 W/m2
05:00 -12.1 °C -12.3 °C 34337.4 hPa SSE 5.1 km/h 12.9 km/h 97 % 12.7 mm 0 W/m2
05:10 -12.1 °C -12.3 °C 34337.4 hPa SSE 5.1 km/h 10.3 km/h 97 % 12.7 mm 0 W/m2
05:15 -12.1 °C -12.3 °C 34337.4 hPa South 5.1 km/h 7.7 km/h 97 % 12.7 mm 0 W/m2
05:20 -12.1 °C -12.3 °C 34347.6 hPa South 2.6 km/h 7.7 km/h 97 % 12.7 mm 0 W/m2
05:25 -12.1 °C -12.3 °C 34347.6 hPa South 5.1 km/h 10.3 km/h 97 % 12.7 mm 0 W/m2
05:30 -12.1 °C -12.3 °C 34347.6 hPa SSE 5.1 km/h 12.9 km/h 97 % 12.7 mm 0 W/m2
05:40 -12.1 °C -12.3 °C 34361.1 hPa SSE 7.7 km/h 12.9 km/h 97 % 12.7 mm 0 W/m2
05:45 -12.1 °C -12.3 °C 34361.1 hPa South 10.3 km/h 15.6 km/h 97 % 7.62 mm 0 W/m2
05:50 -12.1 °C -12.3 °C 34371.3 hPa South 10.3 km/h 15.6 km/h 97 % 7.62 mm 0 W/m2
05:55 -12.1 °C -12.3 °C 34371.3 hPa SSW 7.7 km/h 18.2 km/h 97 % 0 mm 0 W/m2
06:00 -12.1 °C -12.3 °C 34371.3 hPa South 7.7 km/h 18.2 km/h 97 % 0 mm 0 W/m2
06:10 -12.1 °C -12.4 °C 34371.3 hPa SSE 12.9 km/h 18.2 km/h 97 % 0 mm 0 W/m2
06:15 -12.1 °C -12.4 °C 34371.3 hPa SSW 7.7 km/h 18.2 km/h 97 % 0 mm 0 W/m2
06:20 -12.2 °C -12.4 °C 34371.3 hPa South 7.7 km/h 15.6 km/h 97 % 0 mm 0 W/m2
06:25 -12.2 °C -12.4 °C 34384.8 hPa South 7.7 km/h 10.3 km/h 97 % 0 mm 0 W/m2
06:30 -12.2 °C -12.4 °C 34384.8 hPa South 5.1 km/h 10.3 km/h 97 % 0 mm 0 W/m2
06:40 -12.2 °C -12.5 °C 34384.8 hPa SSW 7.7 km/h 15.6 km/h 97 % 0 mm 0 W/m2
06:45 -12.3 °C -12.5 °C 34384.8 hPa SSW 12.9 km/h 18.2 km/h 97 % 0 mm 0 W/m2
06:50 -12.3 °C -12.5 °C 34395 hPa South 5.1 km/h 18.2 km/h 97 % 0 mm 0 W/m2
06:55 -12.3 °C -12.6 °C 34395 hPa South 7.7 km/h 18.2 km/h 97 % 0 mm 0 W/m2
07:00 -12.3 °C -12.6 °C 34395 hPa South 12.9 km/h 15.6 km/h 97 % 0 mm 0 W/m2
07:10 -12.3 °C -12.6 °C 34395 hPa South 2.6 km/h 12.9 km/h 97 % 0 mm 0 W/m2
07:15 -12.3 °C -12.6 °C 34395 hPa South 5.1 km/h 10.3 km/h 97 % 0 mm 0 W/m2
07:25 -12.3 °C -12.6 °C 34395 hPa South 2.6 km/h 10.3 km/h 97 % 0 mm 0 W/m2
07:30 -12.4 °C -12.6 °C 34395 hPa Calm   7.7 km/h 97 % 0 mm 0 W/m2
07:40 -12.4 °C -12.7 °C 34405.1 hPa Calm   7.7 km/h 97 % 0 mm 0 W/m2
07:45 -12.4 °C -12.7 °C 34418.7 hPa South 5.1 km/h 7.7 km/h 97 % 0 mm 0 W/m2
07:55 -12.4 °C -12.7 °C 34418.7 hPa Calm   12.9 km/h 97 % 0 mm 0 W/m2
08:00 -12.4 °C -12.7 °C 34418.7 hPa South 2.6 km/h 12.9 km/h 97 % 0 mm 0 W/m2
08:10 -12.5 °C -12.8 °C 34428.8 hPa Calm   5.1 km/h 97 % 0 mm 0 W/m2
08:20 -12.6 °C -12.9 °C 34428.8 hPa Calm     97 % 0 mm 0 W/m2
08:25 -12.7 °C -13 °C 34442.4 hPa Calm     96 % 0 mm 0 W/m2
08:30 -12.7 °C -13 °C 34442.4 hPa Calm   5.1 km/h 97 % 0 mm 5 W/m2
08:35 -12.8 °C -13.1 °C 34442.4 hPa SSW 10.3 km/h 12.9 km/h 97 % 0 mm 5 W/m2
08:40 -12.8 °C -13.1 °C 34452.6 hPa South 2.6 km/h 18.2 km/h 97 % 0 mm 0 W/m2
08:45 -12.7 °C -12.9 °C 34452.6 hPa South 7.7 km/h 18.2 km/h 97 % 0 mm 7 W/m2
08:50 -12.7 °C -12.9 °C 34452.6 hPa SW 5.1 km/h 15.6 km/h 97 % 0 mm 16 W/m2
08:55 -12.6 °C -12.8 °C 34452.6 hPa South 7.7 km/h 20.8 km/h 97 % 0 mm 18 W/m2
09:00 -12.5 °C -12.8 °C 34462.7 hPa SSW 5.1 km/h 20.8 km/h 97 % 0 mm 26 W/m2
09:10 -12.4 °C -12.7 °C 34462.7 hPa SSW 5.1 km/h 18.2 km/h 97 % 0 mm 26 W/m2
09:15 -12.4 °C -12.7 °C 34476.3 hPa SSW 10.3 km/h 18.2 km/h 97 % 0 mm 39 W/m2
09:20 -12.4 °C -12.6 °C 34476.3 hPa SSW 2.6 km/h 15.6 km/h 97 % 0 mm 44 W/m2
09:30 -12.3 °C -12.6 °C 34476.3 hPa SSW 5.1 km/h 12.9 km/h 97 % 0 mm 53 W/m2
09:40 -12.3 °C -12.5 °C 34486.4 hPa SSW 7.7 km/h 7.7 km/h 97 % 0 mm 56 W/m2
09:45 -12.2 °C -12.5 °C 34486.4 hPa Calm   7.7 km/h 97 % 0 mm 69 W/m2
09:50 -12.2 °C -12.4 °C 34486.4 hPa SSW 5.1 km/h 7.7 km/h 97 % 0 mm 60 W/m2
09:55 -12.1 °C -12.4 °C 34486.4 hPa SSW 2.6 km/h 10.3 km/h 97 % 0 mm 60 W/m2
10:00 -12.1 °C -12.2 °C 34486.4 hPa SSW 10.3 km/h 10.3 km/h 98 % 0 mm 67 W/m2
10:10 -12 °C -12.2 °C 34486.4 hPa SSW 7.7 km/h 10.3 km/h 97 % 0 mm 63 W/m2
10:15 -11.9 °C -12.1 °C 34486.4 hPa South 7.7 km/h 10.3 km/h 98 % 0 mm 88 W/m2
10:25 -11.8 °C -12 °C 34486.4 hPa Calm   15.6 km/h 98 % 0 mm 97 W/m2
10:30 -11.8 °C -11.9 °C 34496.6 hPa South 2.6 km/h 12.9 km/h 98 % 0 mm 120 W/m2
10:40 -11.7 °C -11.9 °C 34496.6 hPa Calm   12.9 km/h 98 % 0 mm 100 W/m2
10:45 -11.7 °C -11.8 °C 34496.6 hPa SSW 5.1 km/h 12.9 km/h 98 % 0 mm 104 W/m2
10:55 -11.5 °C -11.7 °C 34496.6 hPa South 2.6 km/h 12.9 km/h 98 % 0 mm 253 W/m2
11:00 -11.4 °C -11.7 °C 34496.6 hPa South 5.1 km/h 12.9 km/h 97 % 0 mm 220 W/m2
11:10 -11.2 °C -11.3 °C 34510.1 hPa South 7.7 km/h 10.3 km/h 98 % 0 mm 348 W/m2
11:20 -11 °C -11.4 °C 34510.1 hPa Calm   10.3 km/h 96 % 0 mm 192 W/m2
11:25 -10.9 °C -11.3 °C 34510.1 hPa South 12.9 km/h 12.9 km/h 96 % 0 mm 415 W/m2
11:30 -10.7 °C -11.2 °C 34520.3 hPa South 10.3 km/h 12.9 km/h 95 % 0 mm 148 W/m2
11:40 -10.9 °C -11.4 °C 34520.3 hPa Calm   10.3 km/h 95 % 0 mm 207 W/m2
11:45 -10.9 °C -11.4 °C 34533.8 hPa SSW 5.1 km/h 10.3 km/h 95 % 0 mm 91 W/m2
11:55 -11 °C -11.6 °C 34533.8 hPa SSW 15.6 km/h 15.6 km/h 94 % 0 mm 221 W/m2
12:00 -10.8 °C -11.3 °C 34533.8 hPa SSW 7.7 km/h 15.6 km/h 94 % 0 mm 478 W/m2
12:10 -10.7 °C -11.6 °C 34544 hPa SW 7.7 km/h 12.9 km/h 90 % 0 mm 471 W/m2
12:15 -10.5 °C -11.4 °C 34544 hPa Calm   12.9 km/h 90 % 0 mm 499 W/m2
12:20 -10.4 °C -11.4 °C 34544 hPa South 2.6 km/h 18.2 km/h 89 % 0 mm 186 W/m2
12:25 -10.6 °C -11.6 °C 34554.1 hPa SSW 5.1 km/h 18.2 km/h 89 % 0 mm 566 W/m2
12:30 -10.2 °C -10.9 °C 34554.1 hPa WSW 7.7 km/h 12.9 km/h 92 % 0 mm 480 W/m2
12:40 -10.7 °C -11.5 °C 34554.1 hPa SSW 10.3 km/h 20.8 km/h 91 % 0 mm 295 W/m2
12:45 -10.4 °C -11.3 °C 34554.1 hPa WSW 10.3 km/h 18.2 km/h 90 % 0 mm 540 W/m2
12:55 -10.7 °C -11.6 °C 34554.1 hPa SSW 18.2 km/h 23.3 km/h 90 % 0 mm 179 W/m2
13:00 -10.7 °C -11.6 °C 34554.1 hPa SSW 15.6 km/h 28.5 km/h 91 % 0 mm 179 W/m2
13:10 -10.6 °C -11.6 °C 34554.1 hPa South 18.2 km/h 25.9 km/h 89 % 0 mm 545 W/m2
13:20 -10.7 °C -11.7 °C 34554.1 hPa WSW 5.1 km/h 25.9 km/h 89 % 0 mm 290 W/m2
13:25 -10.7 °C -11.7 °C 34554.1 hPa SSW 10.3 km/h 18.2 km/h 89 % 0 mm 234 W/m2
13:30 -10.3 °C -11.3 °C 34567.7 hPa SSE 5.1 km/h 18.2 km/h 89 % 0 mm 575 W/m2
13:40 -10.1 °C -11.3 °C 34567.7 hPa WSW 10.3 km/h 23.3 km/h 87 % 0 mm 555 W/m2
13:45 -10.1 °C -11.3 °C 34567.7 hPa South 10.3 km/h 18.2 km/h 87 % 0 mm 517 W/m2
13:50 -9.9 °C -11.2 °C 34567.7 hPa SSW 12.9 km/h 18.2 km/h 86 % 0 mm 497 W/m2
14:00 -9.9 °C -11.3 °C 34567.7 hPa South 7.7 km/h 20.8 km/h 85 % 0 mm 548 W/m2
14:05 -9.9 °C -11.2 °C 34567.7 hPa South 10.3 km/h 23.3 km/h 86 % 0 mm 563 W/m2
14:10 -9.8 °C -11.2 °C 34567.7 hPa WSW 5.1 km/h 23.3 km/h 85 % 0 mm 554 W/m2
14:15 -9.7 °C -11.2 °C 34567.7 hPa South 18.2 km/h 25.9 km/h 84 % 0 mm 573 W/m2
14:25 -9.6 °C -11.1 °C 34567.7 hPa South 10.3 km/h 28.5 km/h 84 % 0 mm 485 W/m2
14:30 -9.7 °C -11.3 °C 34577.8 hPa South 10.3 km/h 25.9 km/h 83 % 0 mm 339 W/m2
14:40 -9.8 °C -11.1 °C 34577.8 hPa SW 10.3 km/h 23.3 km/h 85 % 0 mm 473 W/m2
14:45 -9.8 °C -11.3 °C 34577.8 hPa SSW 18.2 km/h 25.9 km/h 84 % 0 mm 478 W/m2
14:50 -9.8 °C -11.4 °C 34577.8 hPa South 18.2 km/h 28.5 km/h 83 % 0 mm 466 W/m2
14:55 -9.7 °C -11.4 °C 34577.8 hPa SW 12.9 km/h 28.5 km/h 82 % 0 mm 239 W/m2
15:05 -9.6 °C -11.3 °C 34577.8 hPa SSE 10.3 km/h 33.6 km/h 82 % 0 mm 162 W/m2
15:15 -9.7 °C -11.2 °C 34591.4 hPa SSW 12.9 km/h 25.9 km/h 84 % 0 mm 497 W/m2
15:20 -9.8 °C -11.4 °C 34591.4 hPa SSW 12.9 km/h 25.9 km/h 83 % 0 mm 485 W/m2
15:25 -9.8 °C -11.4 °C 34591.4 hPa SSW 12.9 km/h 25.9 km/h 83 % 0 mm 241 W/m2
15:35 -9.8 °C -11.3 °C 34591.4 hPa SW 5.1 km/h 25.9 km/h 83 % 0 mm 367 W/m2
15:40 -9.8 °C -11.4 °C 34601.5 hPa South 18.2 km/h 23.3 km/h 83 % 0 mm 343 W/m2
15:45 -9.6 °C -11.2 °C 34591.4 hPa South 15.6 km/h 23.3 km/h 83 % 0 mm 367 W/m2
15:50 -9.6 °C -11.4 °C 34591.4 hPa SE 7.7 km/h 25.9 km/h 81 % 0 mm 380 W/m2
15:55 -9.7 °C -11.6 °C 34601.5 hPa South 12.9 km/h 25.9 km/h 80 % 0 mm 309 W/m2
16:05 -9.8 °C -11.6 °C 34601.5 hPa SSW 12.9 km/h 33.6 km/h 81 % 7.62 mm 294 W/m2
16:10 -9.8 °C -11.6 °C 34601.5 hPa SSE 15.6 km/h 33.6 km/h 81 % 7.62 mm 281 W/m2
16:15 -9.7 °C -11.5 °C 34601.5 hPa South 10.3 km/h 31.1 km/h 81 % 7.62 mm 271 W/m2
16:20 -9.7 °C -11.5 °C 34601.5 hPa SSE 7.7 km/h 25.9 km/h 81 % 7.62 mm 257 W/m2
16:25 -9.8 °C -11.8 °C 34601.5 hPa SSW 12.9 km/h 20.8 km/h 79 % 7.62 mm 244 W/m2
16:30 -9.8 °C -11.7 °C 34601.5 hPa South 10.3 km/h 20.8 km/h 80 % 7.62 mm 232 W/m2
16:40 -9.9 °C -11.9 °C 34611.7 hPa South 20.8 km/h 31.1 km/h 79 % 7.62 mm 218 W/m2
16:45 -9.9 °C -11.9 °C 34611.7 hPa SSE 15.6 km/h 31.1 km/h 79 % 7.62 mm 206 W/m2
16:50 -9.9 °C -11.8 °C 34611.7 hPa SSW 10.3 km/h 25.9 km/h 80 % 7.62 mm 74 W/m2
17:00 -10.1 °C -11.8 °C 34611.7 hPa SSE 2.6 km/h 20.8 km/h 81 % 0 mm 40 W/m2
17:10 -10.1 °C -11.9 °C 34611.7 hPa SSE 7.7 km/h 18.2 km/h 80 % 0 mm 37 W/m2
17:15 -10.1 °C -12 °C 34611.7 hPa South 7.7 km/h 20.8 km/h 80 % 0 mm 56 W/m2
17:25 -10.2 °C -12.1 °C 34611.7 hPa SSE 2.6 km/h 18.2 km/h 80 % 0 mm 30 W/m2
17:30 -10.2 °C -12.1 °C 34611.7 hPa South 2.6 km/h 15.6 km/h 80 % 0 mm 30 W/m2
17:40 -10.2 °C -12 °C 34625.2 hPa South 7.7 km/h 18.2 km/h 81 % 0 mm 26 W/m2
17:45 -10.3 °C -12.1 °C 34625.2 hPa SSE 7.7 km/h 12.9 km/h 81 % 0 mm 23 W/m2
17:50 -10.4 °C -12.1 °C 34625.2 hPa SE 12.9 km/h 12.9 km/h 82 % 0 mm 19 W/m2
17:55 -10.4 °C -12.1 °C 34625.2 hPa SE 10.3 km/h 15.6 km/h 82 % 0 mm 19 W/m2
18:00 -10.6 °C -12.2 °C 34625.2 hPa SE 5.1 km/h 18.2 km/h 82 % 0 mm 18 W/m2
18:05 -10.7 °C -12.2 °C 34625.2 hPa SE 5.1 km/h 18.2 km/h 83 % 0 mm 14 W/m2
18:10 -10.7 °C -12.4 °C 34635.4 hPa SSE 10.3 km/h 18.2 km/h 82 % 0 mm 12 W/m2
18:20 -10.9 °C -12.5 °C 34635.4 hPa SE 5.1 km/h 10.3 km/h 83 % 0 mm 9 W/m2
18:25 -11.1 °C -12.6 °C 34635.4 hPa SE 5.1 km/h 10.3 km/h 84 % 0 mm 5 W/m2
18:30 -11.2 °C -12.6 °C 34635.4 hPa SE 2.6 km/h 10.3 km/h 85 % 0 mm 0 W/m2
18:40 -11.5 °C -12.7 °C 34645.6 hPa Calm   12.9 km/h 86 % 0 mm 0 W/m2
18:45 -11.6 °C -12.8 °C 34645.6 hPa Calm   7.7 km/h 87 % 0 mm 0 W/m2
18:50 -11.8 °C -12.9 °C 34645.6 hPa Calm   5.1 km/h 88 % 0 mm 0 W/m2
19:00 -12.2 °C -13.1 °C 34645.6 hPa Calm   5.1 km/h 90 % 0 mm 0 W/m2
19:10 -12.4 °C -13.2 °C 34659.1 hPa Calm   2.6 km/h 91 % 0 mm 0 W/m2
19:15 -12.5 °C -13.2 °C 34659.1 hPa Calm   2.6 km/h 92 % 0 mm 0 W/m2
19:25 -12.5 °C -13.2 °C 34659.1 hPa Calm   5.1 km/h 92 % 0 mm 0 W/m2
19:30 -12.7 °C -13.4 °C 34669.3 hPa Calm   5.1 km/h 92 % 0 mm 0 W/m2
19:35 -12.8 °C -13.4 °C 34659.1 hPa Calm   2.6 km/h 93 % 0 mm 0 W/m2
19:40 -12.8 °C -13.4 °C 34659.1 hPa SE 2.6 km/h 5.1 km/h 93 % 0 mm 0 W/m2
19:45 -12.9 °C -13.5 °C 34659.1 hPa SE 2.6 km/h 5.1 km/h 93 % 0 mm 0 W/m2
19:50 -12.9 °C -13.4 °C 34659.1 hPa Calm   7.7 km/h 94 % 0 mm 0 W/m2
19:55 -12.9 °C -13.4 °C 34669.3 hPa ESE 2.6 km/h 7.7 km/h 94 % 0 mm 0 W/m2
20:00 -12.8 °C -13.3 °C 34659.1 hPa Calm   7.7 km/h 94 % 0 mm 0 W/m2
20:05 -12.8 °C -13.3 °C 34659.1 hPa ESE 5.1 km/h 7.7 km/h 94 % 0 mm 0 W/m2
20:10 -12.9 °C -13.4 °C 34659.1 hPa ESE 2.6 km/h 7.7 km/h 94 % 0 mm 0 W/m2
20:20 -13 °C -13.5 °C 34669.3 hPa Calm   7.7 km/h 94 % 0 mm 0 W/m2
20:25 -13 °C -13.6 °C 34669.3 hPa Calm   7.7 km/h 94 % 0 mm 0 W/m2
20:30 -12.9 °C -13.4 °C 34669.3 hPa ESE 2.6 km/h 7.7 km/h 95 % 0 mm 0 W/m2
20:35 -13.1 °C -13.5 °C 34669.3 hPa Calm   10.3 km/h 95 % 0 mm 0 W/m2
20:40 -13.1 °C -13.5 °C 34669.3 hPa Calm   10.3 km/h 95 % 0 mm 0 W/m2
20:45 -13.1 °C -13.5 °C 34669.3 hPa Calm   5.1 km/h 95 % 0 mm 0 W/m2
20:50 -13.1 °C -13.6 °C 34669.3 hPa Calm   5.1 km/h 95 % 0 mm 0 W/m2
20:55 -13.1 °C -13.5 °C 34669.3 hPa Calm   5.1 km/h 95 % 0 mm 0 W/m2
21:00 -12.9 °C -13.4 °C 34669.3 hPa Calm   5.1 km/h 95 % 0 mm 0 W/m2
21:10 -13 °C -13.4 °C 34669.3 hPa ESE 2.6 km/h 5.1 km/h 95 % 0 mm 0 W/m2
21:20 -13.1 °C -13.5 °C 34669.3 hPa Calm   7.7 km/h 95 % 0 mm 0 W/m2
21:25 -13 °C -13.3 °C 34669.3 hPa ESE 2.6 km/h 7.7 km/h 96 % 0 mm 0 W/m2
21:30 -13 °C -13.4 °C 34669.3 hPa South 5.1 km/h 10.3 km/h 95 % 0 mm 0 W/m2
21:35 -12.9 °C -13.2 °C 34669.3 hPa SE 5.1 km/h 12.9 km/h 96 % 0 mm 0 W/m2
21:45 -12.8 °C -13.2 °C 34669.3 hPa Calm   12.9 km/h 95 % 0 mm 0 W/m2
21:50 -12.8 °C -13.2 °C 34669.3 hPa SE 5.1 km/h 12.9 km/h 95 % 0 mm 0 W/m2
22:00 -12.9 °C -13.4 °C 34682.8 hPa Calm   7.7 km/h 94 % 0 mm 0 W/m2
22:05 -12.9 °C -13.3 °C 34682.8 hPa ESE 5.1 km/h 10.3 km/h 95 % 0 mm 0 W/m2
22:10 -12.9 °C -13.4 °C 34682.8 hPa Calm   10.3 km/h 95 % 0 mm 0 W/m2
22:20 -13 °C -13.4 °C 34682.8 hPa Calm   12.9 km/h 95 % 0 mm 0 W/m2
22:30 -12.8 °C -13.2 °C 34669.3 hPa SE 10.3 km/h 18.2 km/h 96 % 0 mm 0 W/m2
22:35 -12.7 °C -13.1 °C 34669.3 hPa SSE 12.9 km/h 18.2 km/h 96 % 0 mm 0 W/m2
22:40 -12.6 °C -12.9 °C 34669.3 hPa SE 5.1 km/h 18.2 km/h 95 % 0 mm 0 W/m2
22:45 -12.6 °C -13 °C 34669.3 hPa SE 2.6 km/h 18.2 km/h 95 % 0 mm 0 W/m2
22:55 -12.6 °C -13 °C 34669.3 hPa SE 2.6 km/h 15.6 km/h 95 % 0 mm 0 W/m2
23:00 -12.6 °C -13.1 °C 34682.8 hPa ESE 5.1 km/h 12.9 km/h 95 % 0 mm 0 W/m2
23:10 -12.7 °C -13.2 °C 34682.8 hPa Calm   15.6 km/h 94 % 0 mm 0 W/m2
23:15 -12.7 °C -13.2 °C 34682.8 hPa SE 5.1 km/h 15.6 km/h 95 % 0 mm 0 W/m2
23:20 -12.7 °C -13.2 °C 34682.8 hPa ESE 2.6 km/h 12.9 km/h 95 % 0 mm 0 W/m2
23:30 -12.8 °C -13.2 °C 34682.8 hPa SE 5.1 km/h 12.9 km/h 95 % 0 mm 0 W/m2
23:40 -12.8 °C -13.3 °C 34682.8 hPa ESE 5.1 km/h 15.6 km/h 95 % 0 mm 0 W/m2
23:45 -12.9 °C -13.3 °C 34682.8 hPa Calm   10.3 km/h 95 % 0 mm 0 W/m2
23:50 -12.8 °C -13.3 °C 34682.8 hPa SE 7.7 km/h 10.3 km/h 95 % 0 mm 0 W/m2
Avec l'autorisation de Weather Underground - 1.5 mb